Location: Muenchen
(48.1800°N, 11.5800°E)
Time: 14:09:37
(UTC+02:00)

ISS - All Passes

Search period start: 23 August 2017 00:00
Search period end: 02 September 2017 00:00
Orbit: 401 x 408 km, 51.6° (Epoch: 23 August)

Date Brightness Start Highest point End Pass type
(mag) Time Alt. Az. Time Alt. Az. Time Alt. Az.
23 Aug - 09:16:59 10° SSE 09:17:46 11° SE 09:18:33 10° ESE daylight
23 Aug - 10:50:26 10° SW 10:53:39 56° SSE 10:56:54 10° ENE daylight
23 Aug - 12:27:00 10° W 12:30:12 49° N 12:33:25 10° ENE daylight
23 Aug - 14:03:49 10° WNW 14:07:02 50° N 14:10:14 10° E daylight
23 Aug - 15:40:21 10° WNW 15:43:34 54° SSW 15:46:46 10° SE daylight
23 Aug - 17:19:14 10° SW 17:19:26 10° SW 17:19:38 10° SW daylight
24 Aug - 09:58:29 10° SSW 10:01:30 34° SE 10:04:33 10° ENE daylight
24 Aug - 11:34:38 10° W 11:37:53 61° NNW 11:41:09 10° ENE daylight
24 Aug - 13:11:31 10° WNW 13:14:41 44° N 13:17:51 10° ENE daylight
24 Aug - 14:48:05 10° WNW 14:51:22 84° SSW 14:54:38 10° ESE daylight
24 Aug - 16:25:13 10° W 16:27:27 17° SW 16:29:41 10° S daylight
25 Aug - 09:06:50 10° SSW 09:09:25 21° SE 09:12:00 10° E daylight
25 Aug - 10:42:18 10° WSW 10:45:36 83° NNW 10:48:54 10° ENE daylight
25 Aug - 12:19:09 10° WNW 12:22:19 43° N 12:25:29 10° ENE daylight
25 Aug - 13:55:49 10° WNW 13:59:05 69° NNE 14:02:22 10° ESE daylight
25 Aug - 15:32:32 10° W 15:35:23 28° SW 15:38:14 10° SSE daylight
26 Aug - 08:15:47 10° SSE 08:17:23 13° SE 08:18:58 10° ESE daylight
26 Aug - 09:50:05 10° SW 09:53:21 66° SSE 09:56:38 10° ENE daylight
26 Aug - 11:26:46 10° W 11:29:57 47° N 11:33:09 10° ENE daylight
26 Aug - 13:03:32 10° WNW 13:06:46 53° NNE 13:09:59 10° E daylight
26 Aug - 14:40:05 10° WNW 14:43:14 45° SSW 14:46:23 10° SE daylight
27 Aug - 08:58:01 10° SW 09:01:08 41° SSE 09:04:16 10° ENE daylight
27 Aug - 10:34:20 10° W 10:37:35 56° NNW 10:40:50 10° ENE daylight
27 Aug - 12:11:12 10° WNW 12:14:24 45° N 12:17:35 10° E daylight
27 Aug - 13:47:45 10° WNW 13:51:02 73° SSW 13:54:17 10° ESE daylight
27 Aug - 15:25:10 10° WSW 15:27:02 14° SW 15:28:54 10° S daylight
28 Aug - 08:06:12 10° SSW 08:08:59 25° SE 08:11:46 10° E daylight
28 Aug - 09:41:57 10° WSW 09:45:15 74° NNW 09:48:32 10° ENE daylight
28 Aug - 11:18:50 10° WNW 11:22:00 43° N 11:25:10 10° ENE daylight
28 Aug - 12:55:26 10° WNW 12:58:44 77° NNE 13:02:00 10° ESE daylight
28 Aug - 14:32:16 10° W 14:34:57 24° SW 14:37:38 10° SSE daylight
29 Aug - 07:14:51 10° S 07:16:53 16° SE 07:18:57 10° E daylight
29 Aug - 08:49:38 10° WSW 08:52:56 77° SSE 08:56:13 10° ENE daylight
29 Aug - 10:26:24 10° W 10:29:35 45° N 10:32:46 10° ENE daylight
29 Aug - 12:03:07 10° WNW 12:06:23 58° NNE 12:09:38 10° E daylight
29 Aug - 13:39:43 10° WNW 13:42:48 38° SSW 13:45:52 10° SE daylight
30 Aug - 07:57:29 10° SW 08:00:40 49° SSE 08:03:52 10° ENE daylight
30 Aug - 09:33:56 10° W 09:37:10 52° NNW 09:40:24 10° ENE daylight
30 Aug - 11:10:47 10° WNW 11:13:59 47° N 11:17:10 10° E daylight
30 Aug - 12:47:18 10° WNW 12:50:34 62° SSW 12:53:48 10° SE daylight
30 Aug - 14:25:11 10° WSW 14:26:29 12° SW 14:27:48 10° SSW daylight
31 Aug - 07:05:32 10° SSW 07:08:27 30° SE 07:11:24 10° E daylight
31 Aug - 08:41:29 10° W 08:44:47 66° NNW 08:48:04 10° ENE daylight
31 Aug - 10:18:22 10° WNW 10:21:33 43° N 10:24:44 10° ENE daylight
31 Aug - 11:54:57 10° WNW 11:58:15 87° NNE 12:01:33 10° ESE daylight
31 Aug - 13:31:55 10° W 13:34:24 20° SW 13:36:52 10° S daylight
01 Sep - 06:13:55 10° S 06:16:18 19° SE 06:18:40 10° E daylight
01 Sep - 07:49:07 10° WSW 07:52:24 88° SSE 07:55:43 10° ENE daylight
01 Sep - 09:25:55 10° WNW 09:29:06 44° N 09:32:16 10° ENE daylight
01 Sep - 11:02:36 10° WNW 11:05:53 63° NNE 11:09:08 10° E daylight
01 Sep - 12:39:15 10° W 12:42:14 32° SW 12:45:12 10° SSE daylight
